FW7562 Weather Reports


time (UTC)temp
C
wind
direction
speed
KPH
gust
KPH
rain 1hr
cm
rain 24hr
cm
rain mn
cm
humidity
%
barometer
mb
20260505051532 15 163 8.0 20.9 0.00 0.00 0.00 55 1008.5
20260505050128 15 150 6.4 12.9 0.00 0.00 0.00 55 1008.5
20260505041522 16 130 6.4 11.3 0.00 0.00 0.00 54 1008.5
20260505040022 16 157 8.0 14.5 0.00 0.00 0.00 53 1008.3
20260505034516 16 168 8.0 17.7 0.00 0.00 0.00 53 1008.2
20260505033018 16 166 9.7 16.1 0.00 0.00 0.00 53 1008.5
20260505031516 16 158 9.7 20.9 0.00 0.00 0.00 52 1008.5
20260505030014 16 133 11.3 19.3 0.00 0.00 0.00 51 1008.3
20260505024513 16 147 8.0 19.3 0.00 0.00 0.00 51 1008.4
20260505023013 16 160 9.7 22.5 0.00 0.00 0.00 50 1008.8
20260505021513 17 121 9.7 19.3 0.00 0.00 0.00 49 1008.8
20260505020012 17 188 9.7 20.9 0.00 0.00 0.00 48 1008.6
20260505014520 17 146 8.0 17.7 0.00 0.00 0.00 48 1008.5
20260505013010 17 144 8.0 22.5 0.00 0.00 0.00 47 1008.6
20260505011510 17 151 8.0 12.9 0.00 0.00 0.00 47 1008.4
20260505010009 17 130 6.4 14.5 0.00 0.00 0.00 47 1008.2
20260505004509 17 157 6.4 16.1 0.00 0.00 0.00 47 1008.4
20260505003008 17 163 8.0 16.1 0.00 0.00 0.00 46 1008.3
20260505001508 18 139 8.0 17.7 0.00 0.00 0.00 45 1008.0
20260505000010 18 110 6.4 14.5 0.00 0.00 0.00 44 1008.0
20260504234506 18 148 8.0 16.1 0.00 0.00 0.00 43 1008.1
20260504233006 18 185 6.4 20.9 0.00 0.00 0.00 43 1007.8
20260504231505 19 150 9.7 22.5 0.00 0.00 0.00 41 1007.9
20260504230004 20 159 4.8 12.9 0.00 0.00 0.00 40 1007.9
20260504224510 20 147 6.4 14.5 0.00 0.00 0.00 40 1007.8
20260504223003 20 183 6.4 16.1 0.00 0.00 0.00 39 1007.9
20260504221502 20 145 6.4 17.7 0.00 0.00 0.00 39 1008.0
20260504220003 20 169 6.4 14.5 0.00 0.00 0.00 37 1007.9
20260504214600 20 156 8.0 14.5 0.00 0.00 0.00 38 1008.0
20260504213109 21 233 4.8 12.9 0.00 0.00 0.00 34 1008.0
20260504211651 20 153 4.8 17.7 0.00 0.00 0.00 37 1008.0
20260504210056 20 152 6.4 14.5 0.00 0.00 0.00 37 1008.2
20260504204601 20 167 8.0 14.5 0.00 0.00 0.00 37 1008.5
20260504203057 21 105 6.4 14.5 0.00 0.00 0.00 37 1008.5
20260504201557 21 190 6.4 14.5 0.00 0.00 0.00 35 1008.9
20260504200052 21 203 3.2 12.9 0.00 0.00 0.00 38 1009.1
20260504194554 20 231 6.4 17.7 0.00 0.00 0.00 37 1009.1
20260504193047 20 171 6.4 12.9 0.00 0.00 0.00 37 1009.3
20260504191606 19 162 6.4 16.1 0.00 0.00 0.00 41 1009.5
20260504190052 20 206 3.2 14.5 0.00 0.00 0.00 38 1009.5
20260504184549 20 163 6.4 11.3 0.00 0.00 0.00 40 1009.8
20260504183041 20 147 8.0 12.9 0.00 0.00 0.00 38 1009.9
20260504181540 20 139 9.7 17.7 0.00 0.00 0.00 40 1009.7
20260504180038 18 148 11.3 19.3 0.00 0.00 0.00 40 1009.9
20260504174540 18 168 4.8 17.7 0.00 0.00 0.00 42 1010.3
20260504173036 18 153 6.4 20.9 0.00 0.00 0.00 40 1010.2
20260504171537 18 139 6.4 14.5 0.00 0.00 0.00 40 1010.5
20260504081523 7 160 9.7 14.5 0.00 0.00 0.00 57 1013.7
20260504080120 7 165 8.0 11.3 0.00 0.00 0.00 56 1013.7